"Timestamp","TZ","WindDir_Mean (deg)","WindSpd_Mean (km/h)","WindSpd_Min (km/h)","WindSpd_Max (km/h)","Temp_Mean (deg)","RH_Mean (%)","MSLP_Mean (hPa)","Rain_Acc (mm)","Rain_Intensity (mm/h)","Hail_Acc (hits/cm2)","Hail_Intensity (hits/cm2hr)","Solar_Mean (W/m2)"
2018/07/12 00:00:00.012,n,178,0.72,0.36,2.88,14.7,87.7,1022.62,0,0,0,0,0.027885
2018/07/12 00:01:00.000,n,252,1.44,1.08,1.8,14.6,87.8,1022.62,0,0,0,0,0.028725
2018/07/12 00:02:00.000,n,144,0.36,0.36,0.72,14.7,87.9,1022.62,0,0,0,0,0.029602
2018/07/12 00:03:00.004,n,268,1.08,0.36,1.8,14.7,88,1022.62,0,0,0,0,0.033951
2018/07/12 00:04:00.001,n,100,2.52,1.44,2.88,14.7,88,1022.62,0,0,0,0,0.027885
2018/07/12 00:05:00.000,n,168,0.72,0.36,2.16,14.7,88.2,1022.62,0,0,0,0,0.030479
2018/07/12 00:06:00.000,n,159,4.68,3.6,6.48,14.7,88,1022.52,0,0,0,0,0.031357
2018/07/12 00:07:00.008,n,165,2.88,2.52,3.24,14.7,87.8,1022.52,0,0,0,0,0.027008
2018/07/12 00:08:00.005,n,132,4.32,1.44,6.12,14.7,87.5,1022.52,0,0,0,0,0.025253
2018/07/12 00:09:00.002,n,167,3.6,2.16,4.32,14.6,87.7,1022.52,0,0,0,0,0.023537
2018/07/12 00:10:00.000,n,202,3.24,2.88,3.6,14.6,87.7,1022.52,0,0,0,0,0.026131
2018/07/12 00:11:00.000,n,148,2.88,1.8,3.6,14.6,87.7,1022.52,0,0,0,0,0.028725
2018/07/12 00:12:00.000,n,147,0.72,0.36,1.44,14.6,87.8,1022.52,0,0,0,0,0.023537
2018/07/12 00:13:00.000,n,105,2.88,1.8,3.6,14.6,87.8,1022.52,0,0,0,0,0.026131
2018/07/12 00:14:00.006,n,356,0.72,0.36,1.08,14.6,87.8,1022.52,0,0,0,0,0.027008
2018/07/12 00:15:00.004,n,357,1.08,0.36,2.16,14.6,88.2,1022.52,0,0,0,0,0.025253
2018/07/12 00:16:00.002,n,230,1.8,1.44,2.16,14.6,87.8,1022.42,0,0,0,0,0.026131
2018/07/12 00:17:00.000,n,149,1.44,1.08,1.8,14.6,87.8,1022.42,0,0,0,0,0.026131
2018/07/12 00:18:00.014,n,84,2.16,1.8,2.52,14.6,87.8,1022.42,0,0,0,0,0.026131
2018/07/12 00:19:00.000,n,307,1.44,1.08,1.44,14.6,88,1022.42,0,0,0,0,0.028725
2018/07/12 00:20:00.000,n,153,2.52,2.16,2.88,14.6,88,1022.42,0,0,0,0,0.026131
2018/07/12 00:21:00.000,n,223,2.16,1.44,2.16,14.6,87.9,1022.42,0,0,0,0,0.024376
2018/07/12 00:22:00.003,n,324,1.8,1.44,2.52,14.6,88,1022.42,0,0,0,0,0.027008
2018/07/12 00:23:00.000,n,178,1.8,0.72,2.16,14.6,88,1022.42,0,0,0,0,0.027008
2018/07/12 00:24:00.000,n,249,2.88,2.52,3.24,14.6,87.9,1022.42,0,0,0,0,0.024376
2018/07/12 00:25:00.011,n,239,2.52,1.44,2.88,14.6,87.9,1022.42,0,0,0,0,0.023537
2018/07/12 00:26:00.009,n,284,3.24,2.88,3.6,14.6,87.9,1022.42,0,0,0,0,0.024376
2018/07/12 00:27:00.005,n,120,1.08,1.08,1.44,14.6,88,1022.42,0,0,0,0,0.027008
2018/07/12 00:28:00.000,n,205,1.08,0.36,1.44,14.6,88,1022.42,0,0,0,0,0.025253
2018/07/12 00:29:00.000,n,243,1.44,1.08,1.44,14.6,87.9,1022.32,0,0,0,0,0.024376
2018/07/12 00:30:00.000,n,256,3.24,2.88,3.96,14.6,87.9,1022.32,0,0,0,0,0.022659
2018/07/12 00:31:00.000,n,187,4.68,3.24,6.48,14.6,88,1022.32,0,0,0,0,0.026131
2018/07/12 00:32:00.008,n,88,2.16,2.16,2.52,14.6,88.1,1022.32,0,0,0,0,0.024376
2018/07/12 00:33:00.005,n,215,3.24,2.88,3.96,14.6,88,1022.32,0,0,0,0,0.031357
2018/07/12 00:34:00.002,n,199,5.04,4.68,5.4,14.6,88,1022.32,0,0,0,0,0.023537
2018/07/12 00:35:00.000,n,46,0.36,0.36,0.72,14.6,88.1,1022.32,0,0,0,0,0.022659
2018/07/12 00:36:00.012,n,71,1.44,0.36,2.52,14.6,88.1,1022.32,0,0,0,0,0.023537
2018/07/12 00:37:00.000,n,160,4.32,2.52,5.76,14.6,88.3,1022.32,0,0,0,0,0.021744
2018/07/12 00:38:00.000,n,186,2.88,1.8,3.6,14.7,88.2,1022.32,0,0,0,0,0.027046
2018/07/12 00:39:00.003,n,149,2.52,2.16,3.24,14.6,88.1,1022.32,0,0,0,0,0.02964
2018/07/12 00:40:00.001,n,240,0.72,0.36,1.08,14.6,88.1,1022.32,0,0,0,0,0.032272
2018/07/12 00:41:00.000,n,155,5.76,2.88,6.48,14.7,88.1,1022.32,0,0,0,0,0.032272
2018/07/12 00:42:00.000,n,31,3.96,2.52,4.68,14.6,88.1,1022.32,0,0,0,0,0.034828
2018/07/12 00:43:00.010,n,148,5.4,2.52,7.2,14.6,88,1022.32,0,0,0,0,0.030479
2018/07/12 00:44:00.007,n,165,7.92,7.56,8.64,14.6,87.9,1022.32,0,0,0,0,0.02964
2018/07/12 00:45:00.004,n,194,4.32,3.6,4.68,14.6,88.1,1022.32,0,0,0,0,0.028763
2018/07/12 00:46:00.001,n,182,5.4,4.68,5.76,14.6,88.2,1022.32,0,0,0,0,0.031395
2018/07/12 00:47:00.000,n,155,4.68,3.24,6.84,14.6,88,1022.32,0,0,0,0,0.030479
2018/07/12 00:48:00.000,n,183,4.32,3.96,4.68,14.6,87.9,1022.32,0,0,0,0,0.028763
2018/07/12 00:49:00.000,n,158,6.48,5.4,7.92,14.6,87.9,1022.32,0,0,0,0,0.028763
2018/07/12 00:50:00.007,n,191,3.24,2.88,5.4,14.6,88.1,1022.32,0,0,0,0,0.02964
2018/07/12 00:51:00.005,n,143,0.72,0.36,1.08,14.6,88.4,1022.32,0,0,0,0,0.028763
2018/07/12 00:52:00.001,n,188,2.88,2.88,3.24,14.6,88.2,1022.22,0,0,0,0,0.035744
2018/07/12 00:53:00.000,n,164,3.6,2.16,5.04,14.6,88,1022.22,0,0,0,0,0.027885
2018/07/12 00:54:00.011,n,213,1.8,1.8,2.16,14.6,88,1022.32,0,0,0,0,0.028763
2018/07/12 00:55:00.000,n,144,0.36,0,1.08,14.6,88,1022.22,0,0,0,0,0.028763
2018/07/12 00:56:00.000,n,242,2.16,1.8,2.88,14.6,88.1,1022.22,0,0,0,0,0.028763
2018/07/12 00:57:00.002,n,305,1.08,0.36,1.44,14.6,88.1,1022.22,0,0,0,0,0.027885
2018/07/12 00:58:00.000,n,273,3.6,3.24,4.32,14.6,88.1,1022.22,0,0,0,0,0.030479
2018/07/12 00:59:00.000,n,233,2.16,1.8,2.88,14.6,88,1022.22,0,0,0,0,0.028763
2018/07/12 01:00:00.009,n,260,1.8,0.72,2.52,14.6,88,1022.22,0,0,0,0,0.031395
2018/07/12 01:01:00.006,n,268,2.52,2.16,2.88,14.6,87.9,1022.22,0,0,0,0,0.031395
2018/07/12 01:02:00.003,n,243,4.32,3.6,4.68,14.6,87.9,1022.22,0,0,0,0,0.032272
2018/07/12 01:03:00.001,n,247,5.4,5.04,6.12,14.6,87.8,1022.12,0,0,0,0,0.030479
2018/07/12 01:04:00.000,n,250,4.32,3.6,5.04,14.6,87.8,1022.12,0,0,0,0,0.028763
2018/07/12 01:05:00.000,n,289,3.96,2.52,5.04,14.5,87.8,1022.12,0,0,0,0,0.030479
2018/07/12 01:06:00.000,n,241,3.96,3.24,4.68,14.5,87.9,1022.12,0,0,0,0,0.028763
2018/07/12 01:07:00.005,n,281,2.16,0.72,3.6,14.5,87.9,1022.12,0,0,0,0,0.031395
2018/07/12 01:08:00.004,n,111,3.96,3.6,4.68,14.5,87.7,1022.12,0,0,0,0,0.030479
2018/07/12 01:09:00.000,n,284,2.52,2.52,3.24,14.5,87.8,1022.12,0,0,0,0,0.034828
2018/07/12 01:10:00.000,n,224,1.44,1.08,1.44,14.5,87.9,1022.12,0,0,0,0,0.027885
2018/07/12 01:11:00.010,n,259,3.96,3.24,4.68,14.5,87.9,1022.02,0,0,0,0,0.02964
2018/07/12 01:12:00.007,n,201,3.96,3.24,5.04,14.5,87.9,1022.02,0,0,0,0,0.032272
2018/07/12 01:13:00.000,n,140,2.52,2.52,2.88,14.5,88,1022.02,0,0,0,0,0.033112
2018/07/12 01:14:00.000,n,169,2.88,2.52,3.6,14.5,88.1,1022.02,0,0,0,0,0.031395
2018/07/12 01:15:00.000,n,122,4.68,3.96,5.76,14.5,87.9,1022.02,0,0,0,0,0.02964
2018/07/12 01:16:00.000,n,245,2.16,1.08,2.52,14.5,87.9,1022.02,0,0,0,0,0.030479
2018/07/12 01:17:00.008,n,240,1.44,1.44,1.44,14.5,87.9,1022.02,0,0,0,0,0.031395
2018/07/12 01:18:00.005,n,158,11.52,10.08,12.24,14.4,87.7,1022.02,0,0,0,0,0.028763
2018/07/12 01:19:00.003,n,143,2.52,0.72,4.68,14.4,87.7,1022.02,0,0,0,0,0.033112
2018/07/12 01:20:00.001,n,89,1.08,0.36,1.44,14.4,87.8,1022.02,0,0,0,0,0.031395
2018/07/12 01:21:00.014,n,221,6.84,6.48,6.84,14.4,87.8,1022.02,0,0,0,0,0.032272
2018/07/12 01:22:00.000,n,153,3.96,2.88,5.4,14.4,87.7,1022.02,0,0,0,0,0.033112
2018/07/12 01:23:00.000,n,147,5.4,5.04,7.2,14.4,87.7,1022.02,0,0,0,0,0.032272
2018/07/12 01:24:00.000,n,129,2.16,1.08,2.88,14.4,87.9,1022.02,0,0,0,0,0.027046
2018/07/12 01:25:00.004,n,165,2.88,1.8,3.6,14.4,87.8,1022.02,0,0,0,0,0.030479
2018/07/12 01:26:00.003,n,85,1.08,0.36,1.8,14.4,87.8,1021.92,0,0,0,0,0.030479
2018/07/12 01:27:00.000,n,156,6.12,5.4,7.2,14.4,87.6,1021.92,0,0,0,0,0.031395
2018/07/12 01:28:00.000,n,58,0.72,0.36,0.72,14.4,87.8,1021.92,0,0,0,0,0.032272
2018/07/12 01:29:00.009,n,172,1.08,0.72,1.44,14.4,87.8,1021.92,0,0,0,0,0.031395
2018/07/12 01:30:00.007,n,150,3.96,2.52,4.68,14.4,87.6,1021.92,0,0,0,0,0.02964
2018/07/12 01:31:00.000,n,166,7.92,7.2,8.64,14.4,87.5,1021.92,0,0,0,0,0.028763
2018/07/12 01:32:00.000,n,139,3.24,2.16,4.32,14.4,87.4,1021.92,0,0,0,0,0.031395
2018/07/12 01:33:00.000,n,156,5.04,2.88,5.4,14.3,87.4,1021.92,0,0,0,0,0.028763
2018/07/12 01:34:00.000,n,156,6.48,5.4,7.56,14.3,87.3,1021.92,0,0,0,0,0.030479
2018/07/12 01:35:00.008,n,149,7.2,6.84,7.56,14.3,87.3,1021.92,0,0,0,0,0.030479
2018/07/12 01:36:00.005,n,148,6.48,6.12,6.84,14.3,87.3,1021.92,0,0,0,0,0.031395
2018/07/12 01:37:00.003,n,171,6.48,6.12,7.2,14.3,87.4,1021.92,0,0,0,0,0.031395
2018/07/12 01:38:00.000,n,159,7.92,7.2,8.64,14.3,87.4,1021.82,0,0,0,0,0.027885
2018/07/12 01:39:00.013,n,152,5.04,3.96,5.76,14.3,87.4,1021.82,0,0,0,0,0.030479
2018/07/12 01:40:00.000,n,176,5.76,5.4,6.48,14.3,87.5,1021.82,0,0,0,0,0.030479
2018/07/12 01:41:00.000,n,161,2.16,1.44,2.52,14.3,87.5,1021.82,0,0,0,0,0.031395
2018/07/12 01:42:00.004,n,157,3.96,3.6,4.32,14.3,87.4,1021.82,0,0,0,0,0.031395
2018/07/12 01:43:00.000,n,159,6.84,6.12,7.92,14.3,87.4,1021.82,0,0,0,0,0.030479
2018/07/12 01:44:00.000,n,94,1.44,0.72,2.16,14.3,87.5,1021.82,0,0,0,0,0.031395
2018/07/12 01:45:00.000,n,141,3.96,2.52,4.68,14.3,87.5,1021.72,0,0,0,0,0.028763
2018/07/12 01:46:00.009,n,162,6.12,5.76,6.84,14.3,87.2,1021.72,0,0,0,0,0.027885
2018/07/12 01:47:00.006,n,177,9,7.92,10.440002,14.3,87.2,1021.72,0,0,0,0,0.028763
2018/07/12 01:48:00.004,n,173,4.68,3.96,5.04,14.3,87.3,1021.72,0,0,0,0,0.028763
2018/07/12 01:49:00.001,n,176,5.76,5.04,6.12,14.3,87.3,1021.72,0,0,0,0,0.031395
2018/07/12 01:50:00.000,n,164,8.28,7.56,8.64,14.3,87.4,1021.72,0,0,0,0,0.033112
2018/07/12 01:51:00.000,n,205,0.72,0.36,1.08,14.3,87.4,1021.72,0,0,0,0,0.035744
2018/07/12 01:52:00.000,n,166,2.16,1.08,2.88,14.3,87.4,1021.72,0,0,0,0,0.033112
2018/07/12 01:53:00.004,n,248,2.88,1.8,4.32,14.3,87.4,1021.62,0,0,0,0,0.026131
2018/07/12 01:54:00.001,n,159,1.44,1.44,1.44,14.3,87.3,1021.62,0,0,0,0,0.02964
2018/07/12 01:55:00.000,n,169,4.68,2.88,7.2,14.3,87.2,1021.52,0,0,0,0,0.032272
2018/07/12 01:56:00.012,n,217,8.64,6.84,11.88,14.3,87.1,1021.52,0,0,0,0,0.027046
2018/07/12 01:57:00.009,n,148,2.16,1.44,2.88,14.3,87.1,1021.52,0,0,0,0,0.026131
2018/07/12 01:58:00.000,n,218,3.96,2.88,4.32,14.3,87.2,1021.52,0,0,0,0,0.028763
2018/07/12 01:59:00.002,n,272,3.24,1.8,4.32,14.3,87.1,1021.52,0,0,0,0,0.031395
2018/07/12 02:00:00.000,n,175,5.04,3.6,5.4,14.3,87.1,1021.52,0,0,0,0,0.031395
2018/07/12 02:01:00.000,n,112,3.24,2.88,3.96,14.3,87.1,1021.52,0,0,0,0,0.023537
2018/07/12 02:02:00.000,n,158,8.28,2.88,10.8,14.3,87.1,1021.52,0,0,0,0,0.027046
2018/07/12 02:03:00.008,n,84,0.36,0,1.08,14.3,87.2,1021.52,0,0,0,0,0.028763
2018/07/12 02:04:00.006,n,214,0.72,0.36,0.72,14.3,87.4,1021.52,0,0,0,0,0.02964
2018/07/12 02:05:00.003,n,172,7.56,5.4,9.36,14.3,87,1021.52,0,0,0,0,0.020905
2018/07/12 02:06:00.000,n,221,2.52,1.44,3.6,14.3,86.8,1021.52,0,0,0,0,0.024414
2018/07/12 02:07:00.000,n,170,8.28,7.56,9,14.3,86.8,1021.52,0,0,0,0,0.026131
2018/07/12 02:08:00.000,n,136,3.96,1.8,6.84,14.2,86.6,1021.52,0,0,0,0,0.024414
2018/07/12 02:09:00.000,n,151,2.88,0.72,7.2,14.2,86.5,1021.52,0,0,0,0,0.024414
2018/07/12 02:10:00.005,n,177,7.92,7.56,8.64,14.2,86.6,1021.52,0,0,0,0,0.028763
2018/07/12 02:11:00.002,n,159,3.6,2.52,4.32,14.1,86.5,1021.52,0,0,0,0,0.033989
2018/07/12 02:12:00.000,n,113,3.96,2.16,5.4,14.1,86.7,1021.52,0,0,0,0,0.022697
2018/07/12 02:13:00.000,n,102,1.8,1.08,2.16,14.1,86.8,1021.52,0,0,0,0,0.025291
2018/07/12 02:14:00.010,n,159,6.84,3.6,8.64,14.1,86.8,1021.52,0,0,0,0,0.02964
2018/07/12 02:15:00.006,n,170,4.32,3.24,4.68,14.1,86.6,1021.52,0,0,0,0,0.023537
2018/07/12 02:16:00.000,n,161,7.56,6.12,9.72,14.1,86.6,1021.52,0,0,0,0,0.032272
2018/07/12 02:17:00.001,n,159,7.92,6.12,9,14.1,86.6,1021.62,0,0,0,0,0.023537
2018/07/12 02:18:00.000,n,184,2.88,1.44,3.24,14.1,86.6,1021.62,0,0,0,0,0.028763
2018/07/12 02:19:00.000,n,155,7.2,6.84,7.92,14.1,86.5,1021.62,0,0,0,0,0.024414
2018/07/12 02:20:00.000,n,156,3.24,2.52,4.32,14.1,86.6,1021.62,0,0,0,0,0.021782
2018/07/12 02:21:00.006,n,160,2.16,1.44,3.24,14.1,86.6,1021.62,0,0,0,0,0.023537
2018/07/12 02:22:00.004,n,181,1.08,0.36,1.8,14.1,86.8,1021.62,0,0,0,0,0.025291
2018/07/12 02:23:00.001,n,224,4.68,3.96,5.04,14.1,86.6,1021.62,0,0,0,0,0.021782
2018/07/12 02:24:00.014,n,284,2.16,1.8,2.52,14.1,86.6,1021.62,0,0,0,0,0.027885
2018/07/12 02:25:00.000,n,240,2.88,2.16,3.6,14.2,86.6,1021.62,0,0,0,0,0.024414
2018/07/12 02:26:00.000,n,326,0.36,0,0.72,14.2,86.5,1021.62,0,0,0,0,0.025291
2018/07/12 02:27:00.000,n,301,0.72,0.72,0.72,14.2,86.5,1021.52,0,0,0,0,0.021782
2018/07/12 02:28:00.002,n,154,4.68,2.52,5.4,14.2,86.4,1021.52,0,0,0,0,0.021782
2018/07/12 02:29:00.000,n,236,1.8,1.44,2.16,14.1,86.5,1021.52,0,0,0,0,0.022697
2018/07/12 02:30:00.000,n,190,2.88,2.52,3.24,14.2,86.5,1021.52,0,0,0,0,0.024414
2018/07/12 02:31:00.010,n,147,3.6,2.16,4.32,14.2,86.4,1021.52,0,0,0,0,0.024414
2018/07/12 02:32:00.007,n,244,3.6,2.88,4.32,14.1,86.4,1021.52,0,0,0,0,0.025291
2018/07/12 02:33:00.004,n,1,1.8,0.72,2.52,14.2,86.6,1021.52,0,0,0,0,0.025291
2018/07/12 02:34:00.000,n,241,2.52,2.16,2.88,14.2,86.6,1021.52,0,0,0,0,0.023537
2018/07/12 02:35:00.000,n,167,6.84,5.4,8.28,14.2,86.4,1021.42,0,0,0,0,0.023537
2018/07/12 02:36:00.000,n,271,1.44,1.08,2.16,14.2,86.4,1021.42,0,0,0,0,0.024414
2018/07/12 02:37:00.000,n,247,3.6,2.52,4.32,14.2,86.4,1021.42,0,0,0,0,0.024414
2018/07/12 02:38:00.007,n,299,1.8,1.08,2.52,14.2,86.4,1021.42,0,0,0,0,0.025291
2018/07/12 02:39:00.004,n,45,1.44,0.36,1.8,14.2,86.7,1021.42,0,0,0,0,0.025291
2018/07/12 02:40:00.001,n,147,0.72,0,1.44,14.2,86.7,1021.42,0,0,0,0,0.022697
2018/07/12 02:41:00.014,n,302,0.36,0,0.72,14.2,86.5,1021.42,0,0,0,0,0.026131
2018/07/12 02:42:00.012,n,94,1.08,0.36,1.44,14.2,86.5,1021.42,0,0,0,0,0.024414
2018/07/12 02:43:00.000,n,265,1.08,0.36,1.8,14.2,86.4,1021.42,0,0,0,0,0.027046
2018/07/12 02:44:00.000,n,26,0.72,0,1.08,14.2,86.4,1021.42,0,0,0,0,0.028763
2018/07/12 02:45:00.002,n,119,1.44,0.72,1.8,14.2,86.3,1021.42,0,0,0,0,0.026131
2018/07/12 02:46:00.000,n,166,3.96,2.16,5.76,14.2,86.3,1021.42,0,0,0,0,0.023537
2018/07/12 02:47:00.000,n,339,2.52,2.16,3.24,14.2,86.5,1021.32,0,0,0,0,0.027885
2018/07/12 02:48:00.009,n,190,0.36,0.36,0.36,14.2,86.6,1021.32,0,0,0,0,0.026131
2018/07/12 02:49:00.006,n,93,1.44,1.08,2.16,14.2,86.5,1021.32,0,0,0,0,0.030479
2018/07/12 02:50:00.004,n,200,4.32,2.52,5.4,14.2,86.4,1021.32,0,0,0,0,0.030479
2018/07/12 02:51:00.001,n,84,2.16,1.44,2.52,14.2,86.6,1021.32,0,0,0,0,0.028763
2018/07/12 02:52:00.000,n,67,1.8,1.08,2.16,14.2,86.7,1021.32,0,0,0,0,0.027046
2018/07/12 02:53:00.000,n,60,1.08,0.36,2.16,14.2,86.4,1021.32,0,0,0,0,0.033112
2018/07/12 02:54:00.000,n,144,9.36,7.92,10.08,14.2,86.3,1021.32,0,0,0,0,0.027885
2018/07/12 02:55:00.005,n,242,0.36,0.36,0.72,14.2,86.6,1021.32,0,0,0,0,0.032272
2018/07/12 02:56:00.002,n,211,0.36,0.36,0.72,14.2,86.5,1021.32,0,0,0,0,0.032272
2018/07/12 02:57:00.000,n,238,0.36,0.36,0.72,14.2,86.6,1021.32,0,0,0,0,0.031395
2018/07/12 02:58:00.000,n,180,1.8,1.44,2.16,14.2,86.4,1021.32,0,0,0,0,0.032272
2018/07/12 02:59:00.011,n,236,0.72,0.36,1.08,14.2,86.4,1021.32,0,0,0,0,0.026131
2018/07/12 03:00:00.009,n,266,1.44,0.72,1.44,14.2,86.4,1021.32,0,0,0,0,0.027885
2018/07/12 03:01:00.000,n,153,3.24,2.16,3.96,14.2,86.5,1021.32,0,0,0,0,0.026131
2018/07/12 03:02:00.002,n,154,6.12,5.76,6.48,14.2,86.2,1021.22,0,0,0,0,0.026131
2018/07/12 03:03:00.000,n,189,3.24,2.88,3.96,14.2,86.4,1021.22,0,0,0,0,0.027885
2018/07/12 03:04:00.000,n,175,6.12,5.76,6.84,14.2,86.4,1021.22,0,0,0,0,0.027046
2018/07/12 03:05:00.000,n,166,1.8,1.44,1.8,14.2,86.4,1021.32,0,0,0,0,0.026131
2018/07/12 03:06:00.007,n,265,4.32,3.6,4.68,14.2,86.4,1021.32,0,0,0,0,0.026131
2018/07/12 03:07:00.004,n,221,0.72,0,1.08,14.2,86.4,1021.32,0,0,0,0,0.033112
2018/07/12 03:08:00.001,n,151,2.88,2.52,2.88,14.2,86.3,1021.32,0,0,0,0,0.027885
2018/07/12 03:09:00.015,n,272,1.44,0.72,1.44,14.2,86.4,1021.32,0,0,0,0,0.025291
2018/07/12 03:10:00.000,n,163,1.8,0.72,2.88,14.2,86.6,1021.32,0,0,0,0,0.027046
2018/07/12 03:11:00.000,n,124,1.8,1.44,2.52,14.2,86.5,1021.32,0,0,0,0,0.02964
2018/07/12 03:12:00.000,n,256,3.6,3.24,3.96,14.2,86.5,1021.32,0,0,0,0,0.034828
2018/07/12 03:13:00.004,n,143,1.08,0.36,1.44,14.2,86.3,1021.32,0,0,0,0,0.033989
2018/07/12 03:14:00.001,n,96,1.8,1.08,2.52,14.2,86.5,1021.22,0,0,0,0,0.031395
2018/07/12 03:15:00.000,n,139,3.24,3.24,3.96,14.2,86.4,1021.22,0,0,0,0,0.026131
2018/07/12 03:16:00.011,n,259,3.6,3.24,4.32,14.2,86.5,1021.22,0,0,0,0,0.031395
2018/07/12 03:17:00.008,n,253,0.36,0.36,1.08,14.2,86.4,1021.22,0,0,0,0,0.025291
2018/07/12 03:18:00.005,n,117,3.96,3.6,4.32,14.2,86.5,1021.22,0,0,0,0,0.028763
2018/07/12 03:19:00.002,n,279,1.44,0.72,2.88,14.2,86.7,1021.22,0,0,0,0,0.027046
2018/07/12 03:20:00.000,n,259,0.72,0.36,0.72,14.2,86.7,1021.22,0,0,0,0,0.027046
2018/07/12 03:21:00.000,n,281,3.24,3.24,3.6,14.2,86.6,1021.12,0,0,0,0,0.027885
2018/07/12 03:22:00.000,n,279,3.96,3.6,4.32,14.2,86.3,1021.12,0,0,0,0,0.028763
2018/07/12 03:23:00.007,n,242,2.52,2.16,2.88,14.2,86.1,1021.12,0,0,0,0,0.030479
2018/07/12 03:24:00.006,n,284,1.8,1.44,2.52,14.2,86.2,1021.12,0,0,0,0,0.030479
2018/07/12 03:25:00.004,n,274,2.88,2.52,3.24,14.2,86.3,1021.12,0,0,0,0,0.027885
2018/07/12 03:26:00.000,n,293,1.08,0.72,1.44,14.1,86.4,1021.12,0,0,0,0,0.030479
2018/07/12 03:27:00.015,n,270,1.44,1.08,1.44,14.1,86.3,1021.12,0,0,0,0,0.033112
2018/07/12 03:28:00.000,n,269,1.8,1.44,1.8,14.1,86.3,1021.12,0,0,0,0,0.032272
2018/07/12 03:29:00.000,n,305,1.8,1.8,2.16,14.1,86.3,1021.12,0,0,0,0,0.027885
2018/07/12 03:30:00.000,n,278,1.44,0.72,1.8,14.1,86.4,1021.12,0,0,0,0,0.027046
2018/07/12 03:31:00.004,n,228,0.72,0.72,1.08,14.1,86.4,1021.12,0,0,0,0,0.034828
2018/07/12 03:32:00.002,n,223,1.44,1.44,1.8,14.1,86.4,1021.12,0,0,0,0,0.027046
2018/07/12 03:33:00.000,n,223,2.16,1.08,3.24,14.1,86.5,1021.12,0,0,0,0,0.028763
2018/07/12 03:34:00.011,n,270,3.24,2.16,3.96,14.1,86.3,1021.12,0,0,0,0,0.030479
2018/07/12 03:35:00.008,n,243,3.6,0.72,5.4,14.1,86.3,1021.12,0,0,0,0,0.033989
2018/07/12 03:36:00.007,n,256,3.6,3.24,3.6,14.1,86.3,1021.12,0,0,0,0,0.031395
2018/07/12 03:37:00.000,n,233,2.16,1.44,2.88,14.1,86.4,1021.12,0,0,0,0,0.027885
2018/07/12 03:38:00.000,n,257,3.6,3.24,3.96,14,86.4,1021.12,0,0,0,0,0.026131
2018/07/12 03:39:00.000,n,305,3.6,2.88,4.32,14,86.5,1021.12,0,0,0,0,0.027046
2018/07/12 03:40:00.000,n,250,5.4,4.32,6.48,14,86.4,1021.12,0,0,0,0,0.027885
2018/07/12 03:41:00.007,n,255,6.48,5.76,7.2,14,86.4,1021.12,0,0,0,0,0.02964
2018/07/12 03:42:00.004,n,282,3.24,2.88,3.24,14,86.5,1021.12,0,0,0,0,0.034828
2018/07/12 03:43:00.001,n,249,6.12,5.4,6.84,14,86.4,1021.02,0,0,0,0,0.027885
2018/07/12 03:44:00.014,n,256,3.96,3.24,4.32,14,86.4,1021.02,0,0,0,0,0.027885
2018/07/12 03:45:00.011,n,261,3.24,2.52,3.96,14,86.5,1021.02,0,0,0,0,0.028763
2018/07/12 03:46:00.000,n,252,5.04,4.68,5.4,14,86.5,1021.02,0,0,0,0,0.027046
2018/07/12 03:47:00.000,n,256,3.6,2.88,4.32,14,86.5,1021.02,0,0,0,0,0.027046
2018/07/12 03:48:00.001,n,278,3.6,3.24,4.32,14,86.6,1021.02,0,0,0,0,0.028763
2018/07/12 03:49:00.000,n,282,3.6,3.24,3.96,14,86.5,1021.02,0,0,0,0,0.02964
2018/07/12 03:50:00.000,n,258,3.6,3.24,3.96,14,86.5,1021.02,0,0,0,0,0.031395
2018/07/12 03:51:00.007,n,213,2.52,2.16,3.96,14,86.6,1021.02,0,0,0,0,0.028763
2018/07/12 03:52:00.005,n,278,6.12,5.04,6.48,14,86.6,1021.02,0,0,0,0,0.033989
2018/07/12 03:53:00.001,n,240,2.52,2.16,3.24,14,86.6,1021.02,0,0,0,0,0.034828
2018/07/12 03:54:00.015,n,333,1.44,0.72,2.88,14,86.6,1021.02,0,0,0,0,0.027046
2018/07/12 03:55:00.000,n,233,3.6,3.6,3.96,14,86.6,1021.02,0,0,0,0,0.02964
2018/07/12 03:56:00.000,n,219,0.72,0.36,1.44,14,86.8,1021.02,0,0,0,0,0.026131
2018/07/12 03:57:00.000,n,242,1.08,0.72,1.8,14,86.7,1021.02,0,0,0,0,0.027046
2018/07/12 03:58:00.002,n,308,0.72,0.36,1.08,14,86.8,1021.02,0,0,0,0,0.026131
2018/07/12 03:59:00.000,n,253,2.16,1.8,2.16,14,86.9,1021.02,0,0,0,0,0.028763
2018/07/12 04:00:00.000,n,202,3.6,2.88,3.96,14,86.9,1021.02,0,0,0,0,0.034828
2018/07/12 04:01:00.009,n,105,2.52,1.8,3.6,14,86.9,1021.02,0,0,0,0,0.032272
2018/07/12 04:02:00.006,n,130,1.08,0.36,1.44,14,86.9,1021.02,0,0,0,0,0.030479
2018/07/12 04:03:00.003,n,116,1.44,1.08,1.8,14,87,1021.02,0,0,0,0,0.030479
2018/07/12 04:04:00.001,n,136,4.32,2.52,4.68,14,87,1020.92,0,0,0,0,0.031395
2018/07/12 04:05:00.000,n,179,2.88,1.44,3.96,14,87,1021.02,0,0,0,0,0.027885
2018/07/12 04:06:00.000,n,146,3.96,1.44,5.76,14,86.8,1020.92,0,0,0,0,0.027885
2018/07/12 04:07:00.006,n,321,1.44,1.08,1.8,14,86.9,1020.92,0,0,0,0,0.027885
2018/07/12 04:08:00.004,n,321,1.44,1.44,1.44,14,86.9,1020.92,0,0,0,0,0.027885
2018/07/12 04:09:00.000,n,137,0.72,0.36,1.08,14,86.9,1020.92,0,0,0,0,0.028763
2018/07/12 04:10:00.000,n,282,3.24,2.88,3.6,14,87,1020.92,0,0,0,0,0.032272
2018/07/12 04:11:00.010,n,247,1.8,1.08,2.52,14.1,87,1021.02,0,0,0,0,0.02964
2018/07/12 04:12:00.008,n,286,1.08,0.72,1.44,14.1,87,1021.02,0,0,0,0,0.031395
2018/07/12 04:13:00.000,n,97,0.36,0,0.72,14.1,87,1021.02,0,0,0,0,0.025291
2018/07/12 04:14:00.001,n,147,1.44,0.72,1.8,14.1,86.9,1020.92,0,0,0,0,0.026131
2018/07/12 04:15:00.000,n,8,2.16,1.8,2.52,14.1,86.9,1020.92,0,0,0,0,0.028763
2018/07/12 04:16:00.000,n,157,3.24,2.88,3.6,14.1,86.9,1020.92,0,0,0,0,0.026131
2018/07/12 04:17:00.000,n,166,5.4,5.04,5.4,14,86.7,1020.92,0,0,0,0,0.02964
2018/07/12 04:18:00.006,n,189,7.92,6.84,8.64,14,86.7,1020.92,0,0,0,0,0.027885
2018/07/12 04:19:00.003,n,141,6.84,6.12,7.2,14,86.7,1020.82,0,0,0,0,0.035744
2018/07/12 04:20:00.001,n,162,7.56,6.48,8.64,14,86.8,1020.82,0,0,0,0,0.027885
2018/07/12 04:21:00.007,n,177,7.92,7.2,9,14,86.8,1020.82,0,0,0,0,0.030479
2018/07/12 04:22:00.000,n,172,10.08,9.36,10.440002,13.9,86.8,1020.82,0,0,0,0,0.030479
2018/07/12 04:23:00.002,n,152,8.28,7.2,9,13.9,86.9,1020.82,0,0,0,0,0.027885
2018/07/12 04:24:00.000,n,167,10.08,9,10.8,13.9,87,1020.82,0,0,0,0,0.02964
2018/07/12 04:25:00.000,n,160,8.64,7.56,9.36,13.9,87,1020.82,0,0,0,0,0.028763
2018/07/12 04:26:00.001,n,156,9.72,9.36,11.16,13.9,87,1020.82,0,0,0,0,0.027046
2018/07/12 04:27:00.006,n,165,11.16,10.440002,12.6,13.9,87.2,1020.82,0,0,0,0,0.032272
2018/07/12 04:28:00.011,n,163,10.8,10.08,11.52,13.9,87.3,1020.82,0,0,0,0,0.032272
2018/07/12 04:29:00.000,n,172,9.72,9,10.08,14,87.1,1020.82,0,0,0,0,0.033112
2018/07/12 04:30:00.005,n,163,8.28,7.92,9,13.9,87.1,1020.82,0,0,0,0,0.031395
2018/07/12 04:31:00.000,n,170,1.08,0,2.16,13.9,87.2,1020.82,0,0,0,0,0.031395
2018/07/12 04:32:00.000,n,213,0.72,0.36,1.44,13.9,87.3,1020.82,0,0,0,0,0.027885
2018/07/12 04:33:00.004,n,154,6.84,4.32,8.64,14,87.4,1020.82,0,0,0,0,0.027046
2018/07/12 04:34:00.000,n,317,2.16,1.8,2.52,14,87.2,1020.82,0,0,0,0,0.028763
2018/07/12 04:35:00.000,n,237,2.88,2.16,3.6,14,87.4,1020.82,0,0,0,0,0.02964
2018/07/12 04:36:00.003,n,124,6.12,3.6,9,14,87.3,1020.82,0,0,0,0,0.025291
2018/07/12 04:37:00.009,n,143,1.8,0.72,2.16,14,87.4,1020.82,0,0,0,0,0.02964
2018/07/12 04:38:00.014,n,168,2.16,1.44,2.88,14,87.3,1020.82,0,0,0,0,0.02964
2018/07/12 04:39:00.003,n,239,0.72,0.36,1.08,14,87.3,1020.82,0,0,0,0,0.028763
2018/07/12 04:40:00.000,n,270,2.52,1.44,3.96,14,87.4,1020.82,0,0,0,0,0.026131
2018/07/12 04:41:00.000,n,266,2.52,1.8,3.24,14,87.3,1020.82,0,0,0,0,0.028763
2018/07/12 04:42:00.002,n,252,3.24,2.88,3.6,14,87.3,1020.82,0,0,0,0,0.027046
2018/07/12 04:43:00.008,n,234,2.52,2.16,3.24,14,87.2,1020.82,0,0,0,0,0.02964
2018/07/12 04:44:00.000,n,295,3.6,3.24,3.96,14,87.1,1020.82,0,0,0,0,0.030479
2018/07/12 04:45:00.001,n,268,5.4,4.68,6.12,14,87.1,1020.82,0,0,0,0,0.022697
2018/07/12 04:46:00.007,n,262,1.8,0.72,2.88,14,87.2,1020.92,0,0,0,0,0.026131
2018/07/12 04:47:00.012,n,202,3.96,3.6,4.68,14,87.3,1020.92,0,0,0,0,0.027885
2018/07/12 04:48:00.000,n,271,3.6,3.24,4.32,14,87.3,1020.92,0,0,0,0,0.027046
2018/07/12 04:49:00.000,n,289,2.88,2.88,3.24,14,87.3,1020.92,0,0,0,0,0.026131
2018/07/12 04:50:00.000,n,155,1.44,1.08,1.8,14,87.3,1020.92,0,0,0,0,0.021782
2018/07/12 04:51:00.001,n,247,3.24,2.52,3.6,14,87.3,1020.92,0,0,0,0,0.023537
2018/07/12 04:52:00.006,n,349,0.72,0.36,1.08,14,87.4,1020.92,0,0,0,0,0.020905
2018/07/12 04:53:00.000,n,268,1.44,0.72,1.8,14,87.4,1020.92,0,0,0,0,0.027046
2018/07/12 04:54:00.000,n,324,2.52,2.52,3.24,14,87.4,1020.92,0,0,0,0,0.020065
2018/07/12 04:55:00.005,n,149,1.08,0.72,1.08,14,87.4,1021.02,0,0,0,0,0.026131
2018/07/12 04:56:00.011,n,298,2.16,1.44,2.52,14,87.4,1021.02,0,0,0,0,0.024414
2018/07/12 04:57:00.016,n,135,1.08,0.72,1.44,14,87.4,1021.02,0,0,0,0,0.016556